• In Russia
  • List of Countries
  • For 7 days
  • Water Temperature
  • Satellite Maps
  • Weather Map
  • Weather Widgets
  • user-avatar
    Login

    Hourly Weather Albany

    Today, 25 February, Saturday

    Time Temperature Precipitation Wind Pressure Humidity
    00:00 +21°C° 0 mm 6 mps 761 mmHg 69%
    01:00 +21°C° 0 mm 5 mps 760 mmHg 66%
    02:00 +21°C° 0 mm 5 mps 760 mmHg 69%
    03:00 +21°C° 0 mm 5 mps 760 mmHg 65%
    04:00 +21°C° 0 mm 5 mps 760 mmHg 61%
    05:00 +21°C° 0 mm 5 mps 759 mmHg 56%
    06:00 +22°C° 0 mm 5 mps 759 mmHg 50%
    07:00 +25°C° 0 mm 5 mps 759 mmHg 44%
    08:00 +26°C° 0 mm 5 mps 759 mmHg 38%
    09:00 +29°C° 0 mm 5 mps 759 mmHg 33%
    10:00 +32°C° 0 mm 4 mps 758 mmHg 29%
    11:00 +34°C° 0 mm 4 mps 758 mmHg 24%
    12:00 +36°C° 0 mm 4 mps 758 mmHg 22%
    13:00 +37°C° 0 mm 4 mps 757 mmHg 19%
    14:00 +38°C° 0 mm 3 mps 756 mmHg 17%
    15:00 +37°C° 0 mm 4 mps 756 mmHg 20%
    16:00 +36°C° 0 mm 4 mps 755 mmHg 22%
    17:00 +35°C° 0 mm 4 mps 755 mmHg 25%
    18:00 +32°C° 0 mm 4 mps 755 mmHg 32%
    19:00 +28°C° 0 mm 4 mps 755 mmHg 40%
    20:00 +25°C° 0 mm 4 mps 755 mmHg 47%
    21:00 +25°C° 0 mm 3 mps 755 mmHg 50%
    22:00 +24°C° 0 mm 3 mps 754 mmHg 53%
    23:00 +22°C° 0 mm 3 mps 754 mmHg 56%

    Tomorrow, 26 February, Sunday

    Time Temperature Precipitation Wind Pressure Humidity
    00:00 +21°C° 0 mm 4 mps 754 mmHg 64%
    01:00 +21°C° 0 mm 4 mps 754 mmHg 73%
    02:00 +20°C° 0 mm 4 mps 754 mmHg 81%
    03:00 +19°C° 0 mm 4 mps 754 mmHg 84%
    04:00 +19°C° 0 mm 4 mps 754 mmHg 87%
    05:00 +19°C° 0 mm 3 mps 754 mmHg 90%
    06:00 +19°C° 0 mm 3 mps 754 mmHg 84%
    07:00 +20°C° 0 mm 3 mps 755 mmHg 78%
    08:00 +21°C° 0 mm 3 mps 755 mmHg 72%
    09:00 +22°C° 0 mm 3 mps 755 mmHg 65%
    10:00 +25°C° 0 mm 3 mps 755 mmHg 59%
    11:00 +26°C° 0 mm 4 mps 755 mmHg 52%
    12:00 +26°C° 0 mm 4 mps 755 mmHg 51%
    13:00 +26°C° 0 mm 4 mps 755 mmHg 51%
    14:00 +27°C° 0 mm 4 mps 755 mmHg 51%
    15:00 +26°C° 0 mm 4 mps 755 mmHg 55%
    16:00 +25°C° 0 mm 4 mps 755 mmHg 58%
    17:00 +23°C° 0 mm 4 mps 755 mmHg 62%
    18:00 +21°C° 0 mm 4 mps 756 mmHg 69%
    19:00 +20°C° 0 mm 3 mps 756 mmHg 76%
    20:00 +19°C° 0 mm 3 mps 757 mmHg 82%
    21:00 +18°C° 0 mm 2 mps 757 mmHg 85%
    22:00 +18°C° 0 mm 2 mps 757 mmHg 88%
    23:00 +18°C° 0 mm 2 mps 758 mmHg 91%

    Day after tomorrow, 27 February, Monday

    Time Temperature Precipitation Wind Pressure Humidity
    00:00 +19°C° 0 mm 1 mps 757 mmHg 91%
    01:00 +18°C° 0 mm 1 mps 757 mmHg 92%
    02:00 +18°C° 0 mm 1 mps 757 mmHg 93%
    03:00 +18°C° 0 mm 1 mps 758 mmHg 94%
    04:00 +16°C° 0 mm 1 mps 758 mmHg 94%
    05:00 +16°C° 0 mm 1 mps 758 mmHg 95%
    06:00 +19°C° 0 mm 1 mps 758 mmHg 90%
    07:00 +19°C° 0 mm 2 mps 759 mmHg 85%
    08:00 +21°C° 0 mm 2 mps 759 mmHg 80%
    09:00 +21°C° 0.1 mm 3 mps 759 mmHg 77%
    10:00 +22°C° 0.1 mm 3 mps 759 mmHg 75%
    11:00 +22°C° 0.1 mm 4 mps 759 mmHg 72%
    12:00 +22°C° 0.1 mm 4 mps 759 mmHg 74%
    13:00 +22°C° 0.1 mm 4 mps 759 mmHg 75%
    14:00 +21°C° 0.1 mm 4 mps 759 mmHg 77%
    15:00 +21°C° 0.1 mm 4 mps 759 mmHg 78%
    16:00 +20°C° 0.1 mm 4 mps 759 mmHg 78%
    17:00 +20°C° 0.1 mm 4 mps 759 mmHg 79%
    18:00 +19°C° 0 mm 4 mps 760 mmHg 81%
    19:00 +19°C° 0 mm 4 mps 760 mmHg 82%
    20:00 +18°C° 0 mm 4 mps 761 mmHg 83%
    21:00 +18°C° 0 mm 4 mps 761 mmHg 82%
    22:00 +18°C° 0 mm 4 mps 761 mmHg 82%
    23:00 +18°C° 0 mm 4 mps 761 mmHg 81%

    28 February, Tuesday

    Time Temperature Precipitation Wind Pressure Humidity
    00:00 +18°C° 0 mm 3 mps 761 mmHg 81%
    01:00 +18°C° 0 mm 3 mps 761 mmHg 80%
    02:00 +18°C° 0 mm 3 mps 761 mmHg 79%
    03:00 +18°C° 0 mm 3 mps 761 mmHg 81%
    04:00 +17°C° 0 mm 3 mps 761 mmHg 82%
    05:00 +17°C° 0 mm 3 mps 761 mmHg 84%
    06:00 +17°C° 0 mm 3 mps 761 mmHg 80%
    07:00 +18°C° 0 mm 3 mps 762 mmHg 77%
    08:00 +18°C° 0 mm 3 mps 762 mmHg 74%
    09:00 +19°C° 0 mm 3 mps 762 mmHg 71%
    10:00 +19°C° 0 mm 4 mps 762 mmHg 69%
    11:00 +19°C° 0 mm 4 mps 762 mmHg 66%
    12:00 +20°C° 0 mm 4 mps 761 mmHg 63%
    13:00 +21°C° 0 mm 4 mps 761 mmHg 60%
    14:00 +22°C° 0 mm 4 mps 760 mmHg 56%
    15:00 +22°C° 0 mm 5 mps 760 mmHg 59%
    16:00 +21°C° 0 mm 5 mps 760 mmHg 61%
    17:00 +21°C° 0 mm 5 mps 760 mmHg 63%
    18:00 +20°C° 0 mm 5 mps 760 mmHg 68%
    19:00 +19°C° 0 mm 5 mps 761 mmHg 73%
    20:00 +17°C° 0 mm 5 mps 761 mmHg 78%
    21:00 +17°C° 0 mm 5 mps 761 mmHg 80%
    22:00 +17°C° 0 mm 5 mps 761 mmHg 82%
    23:00 +17°C° 0 mm 5 mps 760 mmHg 85%

    1 March, Wednesday

    Time Temperature Precipitation Wind Pressure Humidity
    00:00 +17°C° 0 mm 5 mps 760 mmHg 85%
    01:00 +17°C° 0 mm 5 mps 760 mmHg 86%
    02:00 +17°C° 0 mm 5 mps 759 mmHg 86%
    03:00 +17°C° 0 mm 5 mps 759 mmHg 86%
    04:00 +18°C° 0 mm 4 mps 759 mmHg 86%
    05:00 +18°C° 0 mm 4 mps 759 mmHg 85%
    06:00 +19°C° 0 mm 4 mps 759 mmHg 83%
    07:00 +19°C° 0 mm 4 mps 760 mmHg 81%
    08:00 +20°C° 0 mm 4 mps 760 mmHg 78%
    09:00 +21°C° 0 mm 4 mps 759 mmHg 73%
    10:00 +22°C° 0 mm 4 mps 759 mmHg 69%
    11:00 +25°C° 0 mm 4 mps 759 mmHg 64%
    12:00 +25°C° 0 mm 4 mps 758 mmHg 63%
    13:00 +26°C° 0 mm 5 mps 758 mmHg 62%
    14:00 +26°C° 0 mm 5 mps 757 mmHg 62%
    15:00 +25°C° 0 mm 5 mps 758 mmHg 66%
    16:00 +23°C° 0 mm 5 mps 758 mmHg 70%
    17:00 +22°C° 0 mm 6 mps 758 mmHg 74%
    18:00 +21°C° 0 mm 6 mps 758 mmHg 77%
    19:00 +20°C° 0 mm 6 mps 759 mmHg 80%
    20:00 +20°C° 0 mm 5 mps 760 mmHg 83%
    21:00 +20°C° 0 mm 5 mps 760 mmHg 83%
    22:00 +19°C° 0 mm 5 mps 760 mmHg 83%
    23:00 +19°C° 0 mm 5 mps 760 mmHg 83%

    2 March, Thursday

    Time Temperature Precipitation Wind Pressure Humidity
    00:00 +19°C° 0 mm 4 mps 760 mmHg 83%
    01:00 +19°C° 0 mm 4 mps 760 mmHg 83%
    02:00 +19°C° 0 mm 4 mps 759 mmHg 83%
    03:00 +19°C° 0 mm 4 mps 760 mmHg 84%
    04:00 +19°C° 0 mm 4 mps 760 mmHg 85%
    05:00 +19°C° 0 mm 4 mps 760 mmHg 85%
    06:00 +19°C° 0 mm 4 mps 760 mmHg 84%
    07:00 +19°C° 0 mm 4 mps 760 mmHg 83%
    08:00 +20°C° 0 mm 4 mps 761 mmHg 81%
    09:00 +20°C° 0 mm 4 mps 760 mmHg 79%
    10:00 +21°C° 0 mm 5 mps 760 mmHg 78%
    11:00 +21°C° 0 mm 5 mps 760 mmHg 76%
    12:00 +21°C° 0 mm 5 mps 760 mmHg 75%
    13:00 +22°C° 0 mm 4 mps 759 mmHg 74%
    14:00 +22°C° 0 mm 4 mps 759 mmHg 73%
    15:00 +22°C° 0 mm 4 mps 759 mmHg 73%
    16:00 +22°C° 0 mm 4 mps 759 mmHg 74%
    17:00 +22°C° 0 mm 4 mps 759 mmHg 74%
    18:00 +21°C° 0 mm 4 mps 759 mmHg 79%
    19:00 +20°C° 0 mm 4 mps 759 mmHg 84%
    20:00 +19°C° 0 mm 4 mps 759 mmHg 90%
    21:00 +19°C° 0 mm 4 mps 759 mmHg 91%
    22:00 +19°C° 0 mm 3 mps 759 mmHg 93%
    23:00 +18°C° 0 mm 3 mps 759 mmHg 94%
    Show more